Time,TemperatureF,DewpointF,PressureIn,WindDirection,WindDirectionDegrees,WindSpeedMPH,WindSpeedGustMPH,Humidity,HourlyPrecipIn,Conditions,Clouds,dailyrainin,SoftwareType,DateUTC
2013-08-06 00:01:00,72.0,64.0,29.92,South,177,0.0,0.0,77,0.00,,,0.00,,2013-08-06 04:01:00,
2013-08-06 00:11:00,72.0,65.0,29.92,South,178,0.0,0.0,78,0.00,,,0.00,,2013-08-06 04:11:00,
2013-08-06 00:22:00,72.0,65.0,29.92,South,178,0.0,0.0,78,0.00,,,0.00,,2013-08-06 04:22:00,
2013-08-06 00:33:00,72.0,65.0,29.92,South,178,0.0,0.0,78,0.00,,,0.00,,2013-08-06 04:33:00,
2013-08-06 00:44:00,72.0,65.0,29.92,South,179,0.0,0.0,79,0.00,,,0.00,,2013-08-06 04:44:00,
2013-08-06 00:54:00,72.0,65.0,29.92,South,179,0.0,0.0,79,0.00,,,0.00,,2013-08-06 04:54:00,
2013-08-06 01:02:00,72.0,65.0,29.92,WSW,249,0.0,0.0,80,0.00,,,0.00,,2013-08-06 05:02:00,
2013-08-06 01:11:00,72.0,65.0,29.92,WSW,249,0.0,0.0,80,0.00,,,0.00,,2013-08-06 05:11:00,
2013-08-06 01:22:00,72.0,65.0,29.92,WSW,249,0.0,0.0,80,0.00,,,0.00,,2013-08-06 05:22:00,
2013-08-06 01:32:00,72.0,66.0,29.92,WSW,249,0.0,0.0,81,0.00,,,0.00,,2013-08-06 05:32:00,
2013-08-06 01:53:00,72.0,66.0,29.91,WSW,247,0.0,0.0,81,0.00,,,0.00,,2013-08-06 05:53:00,
2013-08-06 02:02:00,71.0,65.0,29.91,WSW,247,0.0,0.0,81,0.00,,,0.00,,2013-08-06 06:02:00,
2013-08-06 02:12:00,71.0,65.0,29.91,WSW,247,0.0,0.0,81,0.00,,,0.00,,2013-08-06 06:12:00,
2013-08-06 02:22:00,71.0,65.0,29.91,WSW,247,0.0,0.0,82,0.00,,,0.00,,2013-08-06 06:22:00,
2013-08-06 02:32:00,71.0,65.0,29.91,WSW,247,0.0,0.0,82,0.00,,,0.00,,2013-08-06 06:32:00,
2013-08-06 02:43:00,71.0,66.0,29.91,WSW,247,0.0,0.0,83,0.00,,,0.00,,2013-08-06 06:43:00,
2013-08-06 02:52:00,71.0,66.0,29.91,WSW,247,0.0,0.0,85,0.00,,,0.00,,2013-08-06 06:52:00,
2013-08-06 03:01:00,71.0,66.0,29.91,WSW,247,0.0,0.0,85,0.00,,,0.00,,2013-08-06 07:01:00,
2013-08-06 03:12:00,70.0,65.0,29.92,WSW,247,0.0,0.0,84,0.00,,,0.00,,2013-08-06 07:12:00,
2013-08-06 03:22:00,70.0,65.0,29.92,WSW,247,0.0,0.0,84,0.00,,,0.00,,2013-08-06 07:22:00,
2013-08-06 03:32:00,70.0,65.0,29.92,WSW,247,0.0,0.0,84,0.00,,,0.00,,2013-08-06 07:32:00,
2013-08-06 03:43:00,70.0,65.0,29.91,WSW,247,0.0,0.0,84,0.00,,,0.00,,2013-08-06 07:43:00,
2013-08-06 03:53:00,70.0,65.0,29.91,WSW,247,0.0,0.0,84,0.00,,,0.00,,2013-08-06 07:53:00,
2013-08-06 04:02:00,70.0,65.0,29.90,WSW,247,0.0,0.0,84,0.00,,,0.00,,2013-08-06 08:02:00,
2013-08-06 04:22:00,70.0,66.0,29.89,WSW,247,0.0,0.0,86,0.00,,,0.00,,2013-08-06 08:22:00,
2013-08-06 04:33:00,70.0,66.0,29.89,WSW,247,0.0,0.0,86,0.00,,,0.00,,2013-08-06 08:33:00,
2013-08-06 04:43:00,70.0,66.0,29.88,WSW,247,0.0,0.0,87,0.00,,,0.00,,2013-08-06 08:43:00,
2013-08-06 04:52:00,70.0,66.0,29.87,WSW,247,0.0,0.0,88,0.00,,,0.00,,2013-08-06 08:52:00,
2013-08-06 05:01:00,69.0,65.0,29.87,WSW,247,0.0,0.0,88,0.00,,,0.00,,2013-08-06 09:01:00,
2013-08-06 05:11:00,69.0,65.0,29.87,WSW,247,0.0,0.0,88,0.00,,,0.00,,2013-08-06 09:11:00,
2013-08-06 05:32:00,69.0,65.0,29.88,WSW,247,0.0,0.0,88,0.00,,,0.00,,2013-08-06 09:32:00,
2013-08-06 05:43:00,69.0,65.0,29.88,WSW,247,0.0,0.0,88,0.00,,,0.00,,2013-08-06 09:43:00,
2013-08-06 05:52:00,69.0,65.0,29.88,WSW,247,0.0,0.0,88,0.00,,,0.00,,2013-08-06 09:52:00,
2013-08-06 06:01:00,69.0,66.0,29.88,WSW,247,0.0,0.0,89,0.00,,,0.00,,2013-08-06 10:01:00,
2013-08-06 06:12:00,69.0,66.0,29.88,WSW,247,0.0,0.0,89,0.00,,,0.00,,2013-08-06 10:12:00,
2013-08-06 06:32:00,69.0,66.0,29.89,WSW,247,0.0,0.0,90,0.00,,,0.00,,2013-08-06 10:32:00,
2013-08-06 06:43:00,69.0,66.0,29.89,WSW,247,0.0,0.0,90,0.00,,,0.00,,2013-08-06 10:43:00,
2013-08-06 06:53:00,69.0,66.0,29.89,WSW,247,0.0,0.0,90,0.00,,,0.00,,2013-08-06 10:53:00,
2013-08-06 07:02:00,69.0,66.0,29.89,WSW,247,0.0,0.0,90,0.00,,,0.00,,2013-08-06 11:02:00,
2013-08-06 07:32:00,69.0,66.0,29.90,WSW,247,0.0,0.0,90,0.00,,,0.00,,2013-08-06 11:32:00,
2013-08-06 07:43:00,69.0,66.0,29.90,WSW,247,0.0,0.0,90,0.00,,,0.00,,2013-08-06 11:43:00,
2013-08-06 07:53:00,69.0,66.0,29.90,WSW,247,0.0,0.0,90,0.00,,,0.00,,2013-08-06 11:53:00,
2013-08-06 08:02:00,69.0,66.0,29.90,WSW,247,0.0,0.0,91,0.00,,,0.00,,2013-08-06 12:02:00,
2013-08-06 08:11:00,69.0,66.0,29.90,WSW,247,0.0,0.0,91,0.00,,,0.00,,2013-08-06 12:11:00,
2013-08-06 08:22:00,69.0,66.0,29.90,WSW,247,0.0,0.0,91,0.00,,,0.00,,2013-08-06 12:22:00,
2013-08-06 08:43:00,70.0,67.0,29.91,WSW,246,0.0,0.0,89,0.00,,,0.00,,2013-08-06 12:43:00,
2013-08-06 08:52:00,70.0,67.0,29.91,WSW,247,0.0,0.0,89,0.00,,,0.00,,2013-08-06 12:52:00,
2013-08-06 09:02:00,71.0,68.0,29.91,SSE,158,0.0,0.0,89,0.00,,,0.00,,2013-08-06 13:02:00,
2013-08-06 09:11:00,71.0,68.0,29.91,SSE,158,0.0,0.0,89,0.00,,,0.00,,2013-08-06 13:11:00,
2013-08-06 09:22:00,71.0,68.0,29.91,SSE,158,0.0,0.0,89,0.00,,,0.00,,2013-08-06 13:22:00,
2013-08-06 09:32:00,72.0,68.0,29.91,SSE,153,0.0,0.0,86,0.00,,,0.00,,2013-08-06 13:32:00,
2013-08-06 09:42:00,72.0,67.0,29.91,SSE,168,0.0,0.0,85,0.00,,,0.00,,2013-08-06 13:42:00,
2013-08-06 10:01:00,73.0,68.0,29.92,South,180,0.0,0.0,84,0.00,,,0.00,,2013-08-06 14:01:00,
2013-08-06 10:11:00,73.0,68.0,29.92,South,180,0.0,0.0,84,0.00,,,0.00,,2013-08-06 14:11:00,
2013-08-06 10:22:00,73.0,68.0,29.92,South,180,0.0,0.0,84,0.00,,,0.00,,2013-08-06 14:22:00,
2013-08-06 10:32:00,74.0,68.0,29.92,South,181,0.0,0.0,82,0.00,,,0.00,,2013-08-06 14:32:00,
2013-08-06 11:02:00,75.0,69.0,29.91,SSW,201,0.0,0.0,81,0.00,,,0.00,,2013-08-06 15:02:00,
2013-08-06 11:12:00,75.0,69.0,29.91,SSW,201,0.0,0.0,81,0.00,,,0.00,,2013-08-06 15:12:00,
2013-08-06 11:33:00,76.0,69.0,29.91,SSW,211,0.0,0.0,80,0.00,,,0.00,,2013-08-06 15:33:00,
2013-08-06 11:44:00,76.0,69.0,29.91,SW,228,0.0,0.0,80,0.00,,,0.00,,2013-08-06 15:44:00,
2013-08-06 11:52:00,76.0,69.0,29.91,SW,228,0.0,0.0,80,0.00,,,0.00,,2013-08-06 15:52:00,
2013-08-06 12:02:00,77.0,70.0,29.91,West,259,0.0,0.0,78,0.00,,,0.00,,2013-08-06 16:02:00,
2013-08-06 12:11:00,77.0,70.0,29.91,West,259,0.0,0.0,78,0.00,,,0.00,,2013-08-06 16:11:00,
2013-08-06 12:22:00,77.0,70.0,29.91,West,259,0.0,0.0,78,0.00,,,0.00,,2013-08-06 16:22:00,
2013-08-06 12:32:00,79.0,71.0,29.91,WSW,255,0.0,0.0,77,0.00,,,0.00,,2013-08-06 16:32:00,
2013-08-06 12:43:00,80.0,72.0,29.91,West,265,0.0,0.0,78,0.00,,,0.00,,2013-08-06 16:43:00,
2013-08-06 12:52:00,80.0,72.0,29.91,West,265,0.0,0.0,78,0.00,,,0.00,,2013-08-06 16:52:00,
2013-08-06 13:02:00,79.0,72.0,29.91,SW,217,0.0,0.0,78,0.00,,,0.00,,2013-08-06 17:02:00,
2013-08-06 13:11:00,79.0,72.0,29.91,SW,217,0.0,0.0,78,0.00,,,0.00,,2013-08-06 17:11:00,
2013-08-06 13:21:00,79.0,72.0,29.91,SW,217,0.0,0.0,78,0.00,,,0.00,,2013-08-06 17:21:00,
2013-08-06 13:32:00,80.0,73.0,29.90,WSW,243,0.0,0.0,79,0.00,,,0.00,,2013-08-06 17:32:00,
2013-08-06 13:44:00,80.0,72.0,29.90,WSW,247,0.0,0.0,77,0.00,,,0.00,,2013-08-06 17:44:00,
2013-08-06 13:52:00,80.0,72.0,29.90,WSW,247,0.0,0.0,77,0.00,,,0.00,,2013-08-06 17:52:00,
2013-08-06 14:32:00,82.0,74.0,29.89,SSE,157,0.0,0.0,76,0.00,,,0.00,,2013-08-06 18:32:00,
2013-08-06 14:52:00,82.0,73.0,29.88,SSW,202,0.0,0.0,75,0.00,,,0.00,,2013-08-06 18:52:00,
2013-08-06 15:01:00,82.0,73.0,29.88,South,188,0.0,0.0,75,0.00,,,0.00,,2013-08-06 19:01:00,
2013-08-06 15:32:00,81.0,73.0,29.89,WSW,241,0.0,0.0,78,0.00,,,0.00,,2013-08-06 19:32:00,
2013-08-06 15:42:00,81.0,73.0,29.89,WSW,241,0.0,0.0,78,0.00,,,0.00,,2013-08-06 19:42:00,
2013-08-06 15:52:00,81.0,73.0,29.89,WSW,241,0.0,0.0,78,0.00,,,0.00,,2013-08-06 19:52:00,
2013-08-06 16:01:00,82.0,74.0,29.88,SSW,193,0.0,0.0,77,0.00,,,0.00,,2013-08-06 20:01:00,
2013-08-06 16:22:00,82.0,74.0,29.87,SSW,192,0.0,0.0,78,0.00,,,0.00,,2013-08-06 20:22:00,
2013-08-06 16:32:00,82.0,74.0,29.87,SSW,192,0.0,0.0,78,0.00,,,0.00,,2013-08-06 20:32:00,
2013-08-06 16:44:00,84.0,75.0,29.87,SSE,151,0.0,0.0,75,0.00,,,0.00,,2013-08-06 20:44:00,
2013-08-06 17:01:00,84.0,75.0,29.87,SSE,152,0.0,0.0,75,0.00,,,0.00,,2013-08-06 21:01:00,
2013-08-06 17:11:00,84.0,75.0,29.87,SSE,152,0.0,0.0,75,0.00,,,0.00,,2013-08-06 21:11:00,
2013-08-06 17:22:00,84.0,75.0,29.87,SSE,152,0.0,0.0,75,0.00,,,0.00,,2013-08-06 21:22:00,
2013-08-06 17:43:00,83.0,74.0,29.87,SW,236,0.0,0.0,75,0.00,,,0.00,,2013-08-06 21:43:00,
2013-08-06 17:52:00,83.0,74.0,29.87,SW,236,0.0,0.0,75,0.00,,,0.00,,2013-08-06 21:52:00,
2013-08-06 18:01:00,83.0,74.0,29.87,SW,236,0.0,0.0,75,0.00,,,0.00,,2013-08-06 22:01:00,
2013-08-06 18:11:00,83.0,74.0,29.87,SSE,158,0.0,0.0,75,0.00,,,0.00,,2013-08-06 22:11:00,
2013-08-06 18:22:00,83.0,74.0,29.87,SSE,158,0.0,0.0,75,0.00,,,0.00,,2013-08-06 22:22:00,
2013-08-06 18:32:00,83.0,74.0,29.87,SSE,158,0.0,0.0,75,0.00,,,0.00,,2013-08-06 22:32:00,
2013-08-06 18:43:00,83.0,74.0,29.87,SSE,158,0.0,0.0,75,0.00,,,0.00,,2013-08-06 22:43:00,
2013-08-06 18:53:00,84.0,76.0,29.88,South,170,0.0,0.0,76,0.00,,,0.00,,2013-08-06 22:53:00,
2013-08-06 19:02:00,83.0,75.0,29.87,South,170,0.0,0.0,78,0.00,,,0.00,,2013-08-06 23:02:00,
2013-08-06 19:11:00,83.0,75.0,29.86,South,170,0.0,0.0,78,0.00,,,0.00,,2013-08-06 23:11:00,
2013-08-06 19:22:00,83.0,75.0,29.86,South,170,0.0,0.0,78,0.00,,,0.00,,2013-08-06 23:22:00,
2013-08-06 19:33:00,83.0,75.0,29.86,South,170,0.0,0.0,78,0.00,,,0.00,,2013-08-06 23:33:00,
2013-08-06 19:52:00,82.0,74.0,29.86,SSE,153,0.0,0.0,78,0.00,,,0.00,,2013-08-06 23:52:00,
2013-08-06 20:01:00,82.0,74.0,29.86,SSE,153,0.0,0.0,78,0.00,,,0.00,,2013-08-07 00:01:00,
2013-08-06 20:11:00,82.0,75.0,29.86,SSW,211,0.0,0.0,79,0.00,,,0.00,,2013-08-07 00:11:00,
2013-08-06 20:21:00,82.0,75.0,29.86,SSW,211,0.0,0.0,79,0.00,,,0.00,,2013-08-07 00:21:00,
2013-08-06 20:32:00,81.0,74.0,29.87,SSW,200,0.0,0.0,80,0.00,,,0.00,,2013-08-07 00:32:00,
2013-08-06 20:43:00,81.0,74.0,29.87,SSW,200,0.0,0.0,80,0.00,,,0.00,,2013-08-07 00:43:00,
2013-08-06 20:52:00,81.0,74.0,29.87,SSW,200,0.0,0.0,80,0.00,,,0.00,,2013-08-07 00:52:00,
2013-08-06 21:01:00,80.0,74.0,29.87,SSW,200,0.0,0.0,82,0.00,,,0.00,,2013-08-07 01:01:00,
2013-08-06 21:11:00,80.0,74.0,29.87,SSW,200,0.0,0.0,82,0.00,,,0.00,,2013-08-07 01:11:00,
2013-08-06 21:22:00,80.0,74.0,29.87,SSW,199,0.0,0.0,82,0.00,,,0.00,,2013-08-07 01:22:00,
2013-08-06 21:32:00,79.0,74.0,29.87,SSW,203,0.0,0.0,84,0.00,,,0.00,,2013-08-07 01:32:00,
2013-08-06 21:43:00,79.0,74.0,29.87,SSW,203,0.0,0.0,84,0.00,,,0.00,,2013-08-07 01:43:00,
2013-08-06 21:52:00,79.0,74.0,29.87,SSW,203,0.0,0.0,84,0.00,,,0.00,,2013-08-07 01:52:00,
2013-08-06 22:02:00,78.0,73.0,29.87,SSW,203,0.0,0.0,86,0.00,,,0.00,,2013-08-07 02:02:00,
2013-08-06 22:11:00,78.0,73.0,29.87,SSW,203,0.0,0.0,86,0.00,,,0.00,,2013-08-07 02:11:00,
2013-08-06 22:33:00,76.0,73.0,29.87,SSW,203,0.0,0.0,89,0.00,,,0.00,,2013-08-07 02:33:00,
2013-08-06 22:43:00,76.0,73.0,29.87,SSW,203,0.0,0.0,89,0.00,,,0.00,,2013-08-07 02:43:00,
2013-08-06 22:53:00,75.0,72.0,29.88,SSW,203,0.0,0.0,90,0.00,,,0.00,,2013-08-07 02:53:00,
2013-08-06 23:12:00,74.0,71.0,29.88,SSW,203,0.0,0.0,90,0.00,,,0.00,,2013-08-07 03:12:00,
2013-08-06 23:23:00,74.0,71.0,29.88,SSW,203,0.0,0.0,90,0.00,,,0.00,,2013-08-07 03:23:00,
2013-08-06 23:32:00,74.0,71.0,29.88,SSW,203,0.0,0.0,90,0.00,,,0.00,,2013-08-07 03:32:00,
2013-08-06 23:43:00,73.0,70.0,29.89,SSW,203,0.0,0.0,91,0.00,,,0.00,,2013-08-07 03:43:00,
2013-08-06 23:52:00,73.0,70.0,29.89,SSW,203,0.0,0.0,91,0.00,,,0.00,,2013-08-07 03:52:00,